Wind_Speed
16 16 16 14 23 23 22 22 23 22 21 20 21 18 12 6 2 1 2 2 5 6 5 7 4 4 5 5 5 4 4 4 5 6 4 3 4 4 4 6 5 3 6 12 14 14 14 15 16
16 17 14 16 20 22 22 22 21 22 22 21 23 22 19 11 6 4 3 3 6 6 4 4 3 3 5 4 4 4 3 3 5 6 7 7 6 5 5 4 4 3 4 10 12 13 13 15 15
16 16 14 19 19 20 21 20 20 22 25 23 23 23 25 22 15 9 8 6 6 7 5 3 2 1 3 4 5 4 5 5 6 7 7 5 5 5 4 4 3 1 4 4 17 12 12 13 14
14 13 13 12 13 17 20 20 21 24 26 25 23 25 27 25 19 15 11 8 7 7 6 3 2 1 3 4 5 5 6 6 6 6 6 4 3 3 1 2 2 2 4 2 10 16 11 12 12
12 13 13 10 10 13 20 20 21 24 26 27 27 26 25 23 18 15 14 10 8 6 6 4 3 2 2 3 6 6 7 8 8 7 5 6 6 6 5 4 3 4 4 3 1 9 16 13 13
12 16 9 11 14 17 19 19 21 24 27 28 26 26 25 24 21 18 16 13 9 7 6 3 2 2 1 3 7 7 7 8 8 7 5 4 5 6 7 8 9 8 6 3 1 1 2 12 14
11 14 10 12 15 18 18 17 21 23 24 26 24 25 24 24 23 23 19 15 13 11 8 5 3 3 2 3 7 7 7 7 7 8 7 5 4 4 5 5 8 8 7 6 4 2 1 4 10
11 11 8 10 11 15 16 18 21 22 24 24 22 23 23 23 21 21 19 18 17 14 11 7 6 5 5 5 7 7 8 7 7 7 8 8 6 3 3 4 4 5 5 5 7 6 5 4 7
7 9 2 5 11 13 15 19 20 23 24 22 22 21 20 20 19 20 21 22 20 18 17 12 9 7 6 6 7 9 10 9 8 9 9 9 7 6 3 3 4 4 4 4 7 6 8 4 5
6 5 4 5 10 14 14 18 19 22 23 21 20 19 19 20 22 23 24 24 21 16 16 12 11 10 10 10 8 9 11 12 11 10 10 9 9 7 6 5 5 6 6 6 5 7 7 9 8
6 7 3 6 7 8 13 16 19 20 20 19 19 19 20 22 24 25 27 25 20 17 15 12 12 10 6 8 12 11 12 12 14 13 13 12 11 8 7 7 8 8 8 9 9 8 7 7 11
1 6 4 9 8 7 10 13 17 17 15 16 18 19 21 23 26 26 25 24 21 20 15 16 18 19 4 7 13 19 18 16 15 15 14 13 11 9 8 11 10 9 10 12 11 10 11 10 10
3 4 7 11 9 9 8 9 11 13 13 12 14 17 21 23 26 27 26 25 23 22 19 17 17 19 10 15 18 12 22 19 18 19 15 12 8 6 6 8 10 10 10 10 11 12 11 13 12
1 4 11 10 10 8 7 8 8 10 11 12 12 15 19 22 24 25 25 27 26 24 22 18 16 17 18 19 17 14 10 12 15 20 16 12 10 5 3 7 8 10 10 8 9 9 12 14 14
4 3 6 9 10 8 6 6 6 7 8 11 14 13 18 22 25 23 26 29 26 22 23 20 15 21 21 21 17 19 8 11 3 19 18 12 18 8 8 11 9 10 8 7 8 9 9 11 13
9 7 5 13 10 7 4 3 1 2 4 9 13 14 15 19 22 26 26 30 24 22 21 22 19 23 24 22 21 18 4 7 8 15 15 9 5 12 12 9 10 9 10 11 11 14 14 14 16
9 7 10 12 12 8 5 5 3 1 6 7 13 17 17 19 24 27 25 25 25 23 21 23 22 25 27 23 20 20 9 10 11 14 13 14 13 11 10 10 9 10 10 9 12 12 11 16 18
13 11 11 16 14 11 7 6 4 1 3 4 8 16 20 23 24 26 20 22 24 24 21 22 22 25 27 23 22 16 9 13 11 17 15 16 14 10 12 10 7 7 8 11 12 12 13 14 13
23 16 16 14 13 11 10 8 6 3 3 5 10 15 22 22 24 25 19 23 23 22 22 22 23 27 30 27 24 17 5 12 16 14 17 16 13 12 10 6 5 9 11 13 13 13 13 14 11
16 15 15 15 10 8 8 8 8 8 9 7 13 15 18 18 21 19 19 23 22 23 21 20 22 25 30 30 26 16 5 5 8 13 15 15 12 13 10 8 10 12 13 12 12 11 12 13 13
14 15 16 15 9 9 9 12 10 9 9 11 15 12 10 12 15 15 16 19 22 24 21 21 19 21 25 27 23 20 14 5 8 13 10 13 13 11 10 10 12 14 15 13 13 14 13 12 13
14 15 13 16 12 8 10 4 21 16 15 16 15 11 7 13 18 15 14 19 23 23 21 23 13 17 22 23 24 18 13 15 6 7 9 7 5 8 10 11 12 11 10 11 10 11 11 11 14
17 13 15 17 16 15 15 14 12 18 16 18 14 9 15 15 14 17 17 19 21 21 21 15 12 16 17 19 19 18 18 14 5 3 3 3 3 5 5 6 5 6 6 7 9 11 14 14 15
18 14 15 17 18 16 20 18 10 12 14 14 14 14 13 14 15 17 18 18 18 21 20 16 14 17 18 20 21 20 20 14 12 6 3 3 3 2 0 2 4 5 6 8 10 11 14 12 10
18 16 12 13 14 13 21 16 14 17 12 11 11 13 15 16 17 17 20 20 22 22 20 21 19 17 20 21 22 23 22 11 11 10 6 3 4 1 1 2 3 4 6 8 10 11 6 5 6
17 14 13 14 13 13 16 15 13 15 12 8 9 9 14 15 17 17 20 22 21 22 25 23 23 20 21 25 29 26 23 16 11 13 8 4 4 3 4 4 5 5 7 6 7 5 5 5 8
22 19 18 19 20 16 13 15 16 14 9 5 6 11 14 14 17 17 17 20 21 25 27 27 20 19 23 29 31 32 33 22 12 11 9 5 4 5 6 6 5 3 2 3 6 7 10 9 11
24 19 17 17 13 10 14 13 8 9 6 6 8 11 11 12 12 13 15 20 22 26 29 26 21 22 25 33 39 22 10 5 10 12 8 6 4 6 7 8 8 5 5 7 9 9 11 13 12
24 23 21 15 16 9 9 7 12 6 6 7 5 5 8 9 9 10 16 21 25 27 28 26 22 22 26 41 18 13 14 15 13 13 7 6 5 5 8 8 9 8 9 7 5 2 4 7 8
25 23 22 18 18 17 13 10 13 7 8 7 6 7 8 10 10 14 18 23 27 26 26 24 23 23 25 35 3 4 8 7 13 9 6 6 8 7 10 11 10 9 11 9 8 6 4 4 4
Wind_Direction
60 65 64 65 60 73 75 71 66 63 55 52 52 51 49 41 105 227 170 159 122 130 158 170 192 228 241 243 248 235 210 187 170 171 164 137 160 188 130 115 111 80 127 146 137 126 119 116 117
62 52 53 54 73 77 75 73 68 66 60 58 58 58 56 54 56 77 86 101 119 124 130 146 182 239 229 221 211 213 198 166 147 140 137 123 109 153 173 162 153 245 352 152 146 137 133 126 125
62 52 36 57 70 71 69 69 66 64 60 55 61 64 64 61 66 74 69 80 97 99 101 99 114 199 193 180 193 197 175 173 154 142 154 131 116 119 160 192 181 292 333 332 153 145 144 140 136
62 53 49 67 55 59 65 63 61 61 62 58 61 60 61 61 56 59 69 72 76 86 86 75 74 144 147 184 190 183 188 189 182 173 188 184 180 163 171 176 236 300 330 49 157 176 162 156 149
70 54 53 56 50 62 65 64 62 61 60 57 57 58 60 61 60 58 59 56 58 60 71 56 43 75 101 215 202 186 192 190 190 181 198 218 225 229 234 235 258 292 317 11 41 116 173 175 166
71 68 63 73 72 75 71 67 63 59 57 56 53 58 60 60 58 58 61 62 59 51 40 32 11 358 89 255 225 203 202 185 181 187 184 213 229 233 233 242 247 257 266 260 228 223 198 162 176
75 76 85 75 72 66 70 70 66 63 60 56 52 54 57 61 59 56 55 57 55 49 37 10 340 304 266 245 259 226 220 205 186 181 179 189 210 224 220 221 239 239 241 245 208 218 257 147 166
107 84 54 75 71 67 69 68 70 67 62 58 55 50 49 54 57 53 49 43 40 37 29 6 345 327 295 257 242 242 236 231 207 196 182 183 189 193 211 205 212 243 226 228 247 222 226 215 192
126 78 17 90 84 73 74 71 66 65 59 53 50 49 44 44 44 44 41 38 32 28 28 11 354 328 303 286 257 240 238 232 221 210 198 190 199 193 193 216 219 227 240 242 253 239 229 214 202
154 97 205 123 96 90 78 70 61 62 56 50 49 45 44 43 42 38 35 34 28 32 22 21 3 342 317 303 271 252 246 242 232 215 208 207 214 212 208 216 232 233 236 235 248 266 259 238 234
134 175 147 134 112 103 88 72 63 58 56 56 50 42 41 41 39 34 31 27 24 17 8 3 11 346 292 306 295 266 252 246 238 225 213 211 214 219 226 232 226 233 244 238 240 251 262 249 256
114 160 167 157 117 94 87 78 70 61 63 58 48 42 37 36 34 29 26 22 17 10 13 2 11 3 335 276 312 281 278 237 238 236 220 210 211 215 220 239 242 235 238 245 241 245 256 259 258
201 182 177 166 145 113 88 75 66 63 49 42 39 32 31 32 28 20 22 15 10 8 7 6 9 12 22 348 336 301 279 256 240 234 225 209 195 208 216 243 249 248 253 241 234 249 250 257 259
150 173 176 174 165 131 93 69 40 45 39 26 19 17 19 14 11 15 19 13 7 0 359 1 358 1 2 346 339 343 297 248 250 224 218 207 189 178 235 242 255 244 245 245 244 251 259 255 252
213 218 198 203 180 168 129 65 51 35 31 21 8 6 9 7 4 4 6 360 360 3 1 355 358 354 358 352 342 332 302 258 296 214 218 209 220 209 237 256 239 251 257 261 266 268 263 253 253
197 197 190 237 184 195 186 295 356 17 2 4 359 357 1 0 2 359 355 357 1 3 6 2 12 357 355 352 336 327 310 219 240 212 200 213 237 246 240 246 250 260 272 270 256 271 254 251 262
221 190 230 223 200 206 218 204 207 287 349 349 344 342 352 350 353 349 350 360 359 359 4 1 356 358 354 350 333 327 227 221 234 206 209 205 238 240 246 246 252 259 273 270 271 276 264 255 272
240 235 230 218 213 220 242 266 268 88 51 352 337 338 342 348 346 341 352 357 355 355 355 356 355 355 353 353 344 341 268 238 239 207 215 216 230 228 229 230 255 275 286 282 275 266 265 266 276
225 232 229 227 212 223 244 272 281 246 327 2 347 328 328 335 336 337 341 347 347 348 347 346 353 352 354 359 5 357 321 210 230 239 226 220 227 235 275 236 259 277 283 286 287 283 283 280 278
234 227 233 246 237 239 264 298 264 270 294 318 333 312 321 341 327 328 331 342 346 342 339 339 350 352 357 9 9 11 340 202 214 219 206 227 230 229 251 266 276 287 288 291 285 286 290 280 270
232 224 234 222 253 262 280 298 309 296 297 308 321 329 333 333 325 331 331 346 341 335 331 340 337 349 0 12 16 5 17 176 175 175 216 235 215 202 257 268 277 280 289 302 295 291 296 293 276
232 231 244 245 247 260 275 236 296 292 301 314 332 342 319 332 331 319 330 342 336 334 329 326 352 348 360 8 19 17 359 7 32 65 36 6 338 268 261 264 268 284 306 306 301 295 297 295 286
215 245 244 251 248 262 290 279 272 281 294 308 321 318 308 315 314 313 329 335 336 348 337 336 357 342 346 350 4 10 8 340 346 7 349 322 254 256 263 263 286 317 302 307 316 314 301 292 286
244 249 252 263 254 265 262 274 288 261 293 300 292 306 306 313 306 310 324 325 333 339 345 349 347 340 335 339 345 346 349 330 305 292 295 331 344 353 264 287 342 326 325 319 316 314 311 300 303
243 253 257 267 262 265 262 276 222 281 282 285 280 294 308 306 314 313 319 324 321 325 331 334 323 325 327 325 331 335 331 325 280 266 277 358 347 351 331 330 348 350 326 323 316 311 311 338 351
239 230 226 254 251 256 266 272 263 274 284 284 281 291 284 296 299 306 319 317 318 321 330 328 322 311 320 323 321 323 329 330 308 262 261 272 322 352 338 307 309 338 335 327 334 344 3 30 35
234 227 227 237 249 261 263 275 273 272 284 266 269 279 285 287 299 317 320 324 322 321 326 331 315 316 325 318 313 313 308 315 277 248 243 264 307 342 332 299 289 305 306 64 66 56 54 53 36
231 229 241 252 240 257 266 263 226 284 268 259 267 288 292 291 305 316 324 326 328 328 329 330 322 326 328 320 317 307 284 266 283 227 226 258 290 330 314 294 287 279 203 125 96 72 59 56 46
235 237 236 221 237 233 257 277 263 250 234 253 252 299 302 304 303 307 324 323 327 323 329 327 319 325 331 327 322 300 295 293 251 197 217 248 279 309 302 287 278 257 217 185 146 118 53 42 30
234 230 239 239 265 250 233 242 271 229 211 241 256 277 293 300 302 317 314 318 323 322 322 331 320 326 338 340 61 280 223 190 181 194 226 241 248 263 276 275 270 254 228 226 229 244 287 327 347
Height
5927 5927 5927 5927 5927 5926 5924 5923 5921 5919 5918 5915 5912 5910 5909 5909 5907 5909 5905 5906 5905 5905 5904 5905 5905 5906 5906 5906 5906 5906 5906 5906 5906 5906 5906 5907 5908 5907 5907 5907 5908 5908 5909 5911 5912 5913 5913 5914 5914
5930 5930 5929 5929 5932 5929 5927 5925 5923 5921 5919 5916 5913 5910 5908 5908 5906 5907 5906 5906 5906 5905 5905 5905 5905 5906 5906 5906 5906 5906 5906 5906 5906 5906 5907 5907 5908 5908 5909 5908 5908 5907 5905 5910 5912 5914 5915 5915 5916
5932 5932 5933 5932 5933 5931 5929 5927 5924 5921 5918 5917 5915 5913 5911 5909 5908 5908 5908 5907 5906 5905 5905 5906 5906 5906 5906 5906 5906 5906 5906 5907 5907 5907 5908 5908 5909 5909 5910 5909 5909 5909 5909 5911 5912 5914 5915 5916 5917
5934 5936 5937 5936 5935 5933 5931 5928 5926 5922 5921 5920 5918 5915 5912 5911 5910 5909 5909 5908 5906 5906 5906 5906 5906 5905 5905 5906 5905 5906 5907 5907 5906 5906 5908 5908 5909 5910 5911 5911 5910 5910 5910 5911 5913 5914 5916 5917 5917
5936 5938 5941 5939 5936 5934 5932 5930 5928 5925 5923 5921 5918 5917 5915 5913 5912 5911 5910 5909 5908 5907 5907 5907 5906 5906 5905 5906 5905 5904 5905 5905 5905 5906 5907 5907 5908 5908 5910 5911 5910 5910 5911 5911 5911 5912 5915 5915 5916
5939 5940 5946 5944 5938 5936 5934 5932 5930 5927 5924 5923 5922 5920 5918 5916 5914 5913 5912 5911 5910 5909 5908 5908 5907 5907 5905 5905 5906 5904 5904 5904 5904 5905 5906 5907 5907 5908 5908 5909 5910 5911 5911 5912 5913 5912 5913 5913 5916
5941 5945 5944 5943 5941 5939 5936 5934 5932 5930 5928 5925 5925 5922 5921 5918 5917 5914 5913 5912 5912 5910 5909 5909 5908 5907 5906 5905 5905 5904 5904 5904 5904 5904 5904 5905 5906 5906 5907 5908 5909 5909 5910 5910 5911 5910 5912 5913 5915
5943 5944 5946 5945 5945 5942 5939 5936 5934 5932 5930 5928 5927 5925 5923 5921 5919 5918 5916 5914 5913 5911 5910 5909 5909 5908 5907 5906 5904 5903 5902 5902 5903 5903 5903 5903 5904 5905 5906 5908 5908 5909 5909 5909 5910 5911 5912 5912 5913
5945 5947 5949 5947 5945 5944 5941 5938 5937 5934 5932 5930 5928 5927 5926 5924 5922 5920 5919 5917 5915 5913 5912 5910 5908 5908 5908 5907 5906 5903 5901 5899 5900 5901 5902 5902 5903 5903 5905 5907 5908 5908 5909 5909 5910 5911 5912 5913 5913
5947 5949 5948 5946 5945 5944 5942 5940 5939 5936 5934 5933 5931 5930 5929 5927 5924 5923 5921 5919 5916 5914 5911 5909 5907 5906 5906 5906 5905 5904 5902 5901 5898 5898 5899 5900 5900 5902 5903 5905 5906 5907 5908 5908 5908 5910 5911 5912 5912
5946 5951 5948 5947 5946 5944 5944 5942 5940 5938 5937 5936 5935 5933 5931 5929 5926 5924 5922 5920 5917 5914 5911 5908 5905 5903 5902 5903 5903 5901 5901 5900 5899 5897 5896 5897 5898 5900 5902 5903 5905 5906 5907 5908 5908 5909 5910 5910 5910
5947 5948 5948 5947 5947 5946 5944 5943 5942 5940 5940 5938 5937 5935 5932 5930 5928 5926 5924 5921 5917 5914 5911 5908 5905 5900 5897 5899 5899 5896 5896 5896 5897 5897 5895 5895 5897 5899 5900 5901 5903 5905 5905 5906 5907 5907 5908 5909 5909
5946 5947 5948 5947 5946 5945 5945 5944 5943 5942 5940 5939 5938 5936 5934 5932 5929 5927 5924 5921 5918 5914 5911 5908 5905 5900 5899 5898 5895 5892 5891 5891 5892 5892 5894 5894 5895 5898 5900 5899 5900 5902 5903 5902 5904 5905 5905 5906 5907
5944 5945 5947 5947 5947 5946 5946 5944 5944 5943 5941 5940 5938 5937 5935 5933 5931 5928 5925 5922 5918 5914 5910 5908 5905 5902 5899 5895 5892 5889 5887 5887 5886 5888 5890 5891 5892 5893 5897 5899 5899 5900 5900 5900 5901 5901 5902 5904 5904
5944 5947 5947 5948 5946 5947 5946 5946 5944 5942 5941 5940 5939 5938 5936 5933 5931 5928 5926 5921 5917 5914 5910 5907 5905 5900 5896 5891 5890 5886 5883 5882 5882 5884 5885 5886 5884 5890 5896 5897 5897 5898 5898 5898 5898 5899 5900 5901 5901
5944 5945 5952 5948 5947 5947 5947 5953 5946 5943 5941 5940 5939 5938 5936 5934 5932 5929 5926 5921 5916 5913 5911 5906 5903 5898 5893 5889 5886 5882 5879 5879 5880 5880 5884 5884 5884 5888 5892 5896 5896 5896 5896 5896 5897 5897 5896 5897 5897
5943 5951 5948 5946 5945 5946 5947 5951 5946 5943 5942 5940 5938 5937 5936 5934 5932 5928 5925 5921 5917 5912 5911 5907 5902 5897 5891 5888 5884 5877 5874 5876 5877 5879 5883 5884 5886 5887 5890 5893 5894 5894 5894 5893 5893 5893 5892 5893 5893
5947 5945 5945 5944 5945 5945 5945 5945 5945 5944 5942 5940 5938 5936 5934 5933 5931 5928 5924 5921 5917 5913 5910 5907 5902 5897 5893 5887 5880 5873 5872 5875 5877 5879 5881 5883 5885 5885 5887 5887 5888 5889 5890 5890 5889 5889 5888 5888 5887
5937 5939 5940 5942 5943 5944 5944 5944 5944 5943 5941 5940 5938 5936 5933 5933 5930 5928 5924 5920 5917 5914 5910 5906 5902 5896 5891 5884 5877 5870 5870 5872 5875 5878 5880 5883 5884 5884 5884 5885 5886 5887 5887 5887 5885 5885 5884 5884 5884
5935 5937 5938 5939 5940 5942 5942 5942 5943 5942 5940 5939 5937 5935 5933 5931 5929 5926 5923 5918 5915 5912 5909 5905 5901 5896 5890 5883 5876 5874 5873 5872 5874 5877 5880 5882 5882 5881 5882 5883 5884 5884 5884 5884 5882 5882 5881 5881 5881
5932 5934 5936 5939 5938 5940 5941 5941 5940 5939 5938 5938 5936 5933 5931 5929 5927 5925 5922 5918 5912 5909 5906 5903 5900 5896 5891 5886 5881 5877 5875 5875 5875 5876 5879 5880 5879 5879 5881 5882 5882 5882 5881 5878 5878 5878 5878 5878 5878
5930 5931 5932 5934 5937 5943 5939 5945 5939 5937 5935 5934 5933 5931 5930 5928 5925 5923 5920 5916 5911 5907 5902 5898 5896 5894 5890 5887 5884 5880 5878 5877 5875 5876 5879 5880 5880 5881 5881 5881 5880 5879 5877 5877 5876 5876 5875 5875 5874
5929 5927 5929 5931 5935 5935 5937 5937 5939 5934 5932 5931 5930 5930 5929 5927 5924 5921 5917 5913 5909 5905 5900 5897 5894 5892 5890 5887 5884 5881 5879 5879 5878 5878 5879 5880 5879 5879 5878 5878 5877 5875 5876 5875 5874 5873 5873 5871 5870
5921 5924 5926 5928 5932 5934 5933 5933 5936 5933 5930 5929 5928 5927 5926 5924 5921 5918 5915 5911 5908 5904 5901 5897 5893 5890 5888 5885 5881 5879 5878 5876 5877 5877 5876 5876 5876 5875 5876 5876 5875 5874 5874 5873 5872 5871 5870 5868 5866
5918 5922 5926 5928 5929 5930 5926 5928 5932 5927 5927 5927 5926 5924 5924 5921 5919 5916 5913 5909 5905 5902 5898 5896 5893 5888 5885 5883 5879 5877 5875 5874 5875 5875 5875 5873 5874 5874 5874 5874 5874 5873 5873 5872 5870 5869 5868 5865 5864
5916 5921 5925 5926 5927 5927 5922 5924 5925 5923 5924 5924 5923 5922 5919 5918 5915 5914 5911 5906 5902 5900 5897 5893 5889 5885 5882 5879 5875 5872 5871 5870 5871 5871 5873 5872 5872 5872 5872 5872 5872 5871 5870 5870 5868 5868 5866 5864 5862
5911 5914 5917 5918 5919 5920 5923 5920 5920 5920 5920 5920 5919 5917 5917 5915 5912 5910 5907 5903 5901 5897 5894 5890 5886 5883 5880 5875 5870 5866 5863 5863 5865 5866 5869 5869 5869 5869 5870 5871 5871 5870 5871 5870 5868 5868 5865 5862 5861
5907 5911 5913 5914 5918 5917 5918 5916 5920 5917 5917 5916 5915 5914 5914 5912 5910 5907 5904 5901 5899 5895 5891 5886 5883 5881 5876 5869 5862 5856 5855 5857 5860 5864 5867 5867 5868 5868 5869 5870 5870 5869 5870 5868 5867 5868 5865 5863 5863
5903 5905 5908 5912 5912 5917 5916 5916 5912 5914 5914 5912 5912 5911 5909 5908 5906 5905 5902 5899 5895 5891 5886 5883 5880 5877 5871 5861 5847 5848 5853 5855 5857 5861 5864 5865 5865 5866 5868 5868 5870 5869 5869 5867 5866 5866 5865 5863 5863
5896 5900 5903 5906 5908 5909 5910 5914 5909 5910 5910 5909 5908 5908 5906 5904 5903 5902 5900 5896 5893 5889 5884 5880 5876 5874 5867 5859 5844 5851 5854 5854 5857 5858 5861 5862 5863 5864 5866 5867 5867 5867 5867 5867 5866 5865 5863 5862 5862